Location: ??????
(52.1667°N, 54.4000°E)
Time: 13:48:47
(UTC+00:00)

Daily predictions for brighter satellites

Satellite Brightness Start Highest point End
(mag) Time Altitude Azimuth Time Altitude Azimuth Time Altitude Azimuth
ATLAS 5 CENTAUR R/B 3.2 13:15:00 10° NW 13:17:21 24° NNE 13:22:05 10° ENE
Meteor 1-24 Rocket 4.4 13:13:12 10° SSE 13:17:46 31° E 13:22:27 10° NNE
Cosmos 990 Rocket 4.0 13:14:31 10° SSW 13:19:46 82° ESE 13:25:03 10° NNE
In-Cosmos 22 4.1 13:14:29 10° S 13:19:49 72° E 13:25:06 10° NNE
PSLV R/B 4.4 13:19:22 10° NNE 13:23:15 42° E 13:27:08 10° S
Meteor 2-5 Rocket 4.0 13:18:20 10° SSE 13:23:33 46° E 13:28:52 10° NNE
USA 267 3.4 13:17:37 10° ENE 13:24:12 80° SSE 13:30:46 10° WSW
COSMO-SKYMED 1 4.1 13:25:04 10° NE 13:27:59 17° E 13:30:52 10° SE
NOSS 0 Rocket 4.2 13:22:16 10° NNW 13:28:20 48° NE 13:34:19 10° ESE
SL-16 R/B 3.5 13:24:47 10° NNW 13:28:58 20° NNE 13:33:09 10° E
Cosmos 1461 2.9 13:24:47 10° NW 13:29:04 78° NE 13:33:31 10° SE
Cosmos 1674 2.8 13:27:03 10° S 13:30:40 53° E 13:34:19 10° NNE
Cosmos 1606 Rocket 4.3 13:27:30 10° NNW 13:31:48 58° W 13:36:02 10° S
Cosmos 1340 Rocket 3.8 13:29:12 10° N 13:32:31 25° ENE 13:35:52 10° SE
Cosmos 1908 3.2 13:29:13 10° N 13:33:08 86° E 13:36:59 10° S
Okean-O 2.9 13:29:42 10° SE 13:33:54 44° ENE 13:38:07 10° N
Cosmos 1726 Rocket 4.0 13:30:17 10° NNW 13:34:39 67° W 13:38:56 10° S
Cosmos 1300 3.4 13:31:21 10° N 13:34:50 32° ENE 13:38:18 10° SE
Okean O Rocket 3.1 13:34:25 10° S 13:38:36 42° W 13:42:52 10° NNW
Cosmos 1833 4.3 13:33:00 10° SSW 13:38:40 69° ESE 13:44:23 10° NE
ATLAS 5 CENTAUR R/B 1.7 13:35:19 10° SSW 13:39:33 69° SE 13:44:24 10° NE
Cosmos 1726 3.3 13:36:05 10° NNW 13:39:36 45° W 13:43:05 10° SSW
Cosmos 2333 4.4 13:34:56 10° NNW 13:40:42 79° WSW 13:46:23 10° SSE
CZ-4B R/B 3.1 13:38:19 10° N 13:41:04 29° WNW 13:43:47 10° SW
Cosmos 494 Rocket 4.3 13:36:37 10° NNW 13:41:30 41° NE 13:46:19 10° SE
Helios 1A Rocket 4.3 13:38:03 10° S 13:41:55 44° W 13:45:49 10° NNW
Cosmos 2322 4.1 13:36:50 10° NW 13:42:29 70° WSW 13:48:06 10° SSE
Ariane Rocket 4.4 13:40:43 10° E 13:43:53 17° NE 13:47:05 10° NNE
SL-14 R/B 4.1 13:41:53 10° SSE 13:45:27 31° E 13:48:59 10° NNE
H-2A R/B 3.8 13:44:50 11° NE 13:45:39 11° NE 13:46:56 10° NNE
Cosmos 1626 Rocket 4.2 13:42:11 10° SSE 13:46:06 34° E 13:50:02 10° NNE
KORONAS-FOTON 3.7 13:42:52 10° S 13:46:38 72° E 13:50:26 10° NNE
Cosmos 1271 Rocket 3.1 13:46:04 10° SSE 13:49:35 41° E 13:53:08 10° NNE
Cosmos 1607 4.5 13:44:17 10° S 13:49:55 40° ESE 13:55:13 12° NE
Cosmos 1455 3.9 13:49:07 10° NNE 13:51:11 14° ENE 13:51:25 14° ENE
Cosmos 1980 4.0 13:46:16 10° NNW 13:51:47 47° NE 13:57:15 10° ESE
Cosmos 1939 Rocket 4.0 13:50:43 10° ESE 13:53:45 22° ENE 13:56:50 10° NNE
CORIOLIS 4.3 13:48:45 10° SSE 13:54:08 83° WSW 13:59:33 10° NNW
Cosmos 2297 Rocket 3.8 13:52:47 10° SE 13:55:31 14° E 13:56:43 13° E
Starlink T 4.4 13:53:57 10° SSW 13:56:16 22° SE 13:57:52 14° ESE
NOAA 12 4.1 13:51:20 10° SSE 13:56:34 86° ENE 14:01:51 10° NNW
Cosmos 2360 Rocket 4.0 13:51:40 10° NW 13:56:45 35° WSW 14:01:48 10° S
Starlink N 4.4 13:55:02 10° SSW 13:57:22 22° SE 13:58:56 15° ESE
Starlink Q 4.3 13:56:26 10° SSW 13:58:48 23° SE 14:00:19 15° ESE
Starlink P 4.3 13:57:37 10° SSW 14:00:01 23° SE 14:01:29 16° ESE
Alouette 2 Rocket 4.1 13:55:51 10° NNW 14:00:10 90° W 14:06:36 10° SSE
Cosmos 1898 Rocket 4.3 13:55:03 10° SW 14:00:14 52° WNW 14:05:26 10° NNE
Starlink U 4.3 13:58:49 10° SSW 14:01:13 23° SSE 14:02:40 16° ESE
ATLAS CENTAUR R/B 3.0 13:58:11 10° NNW 14:01:20 19° NNE 14:03:08 15° NE
Starlink B 4.3 13:59:48 10° SSW 14:02:12 24° SSE 14:03:36 17° ESE
Cosmos 1626 2.5 13:59:00 10° SSE 14:02:28 40° E 14:05:59 10° NNE
COSMOS 2428 2.9 13:57:14 10° NNW 14:03:01 80° WSW 14:08:45 10° SSE
SMAP 3.8 13:58:54 10° S 14:03:29 57° W 14:08:06 10° NNW
Cosmos 2219 Rocket 2.5 13:59:43 10° NNW 14:05:25 75° WSW 14:11:04 10° SSE
Starlink D 4.2 14:03:56 10° SSW 14:06:26 26° SSE 14:07:45 18° ESE
Cosmos 2150 Rocket 4.0 14:01:33 10° S 14:06:38 63° ESE 14:11:44 10° NNE
Cosmos 2184 Rocket 3.9 14:00:57 10° S 14:07:07 79° E 14:13:18 10° NNE
Cosmos 2227 Rocket 3.7 14:04:07 10° SE 14:07:20 16° E 14:08:02 15° E
Starlink S 4.1 14:05:13 10° SSW 14:07:45 26° SSE 14:09:00 19° ESE
YAOGAN 6 2.5 14:04:18 10° SSE 14:07:58 70° ENE 14:11:40 10° N
Cosmos 1242 Rocket 2.6 14:04:55 10° S 14:08:18 51° E 14:11:47 10° NNE
Starlink C 4.1 14:06:26 10° SSW 14:08:59 27° SSE 14:10:12 20° ESE
SJ 16-02 2.8 14:04:55 10° SW 14:09:01 36° WNW 14:13:09 10° N
Cosmos 1937 Rocket 4.1 14:04:38 10° SW 14:09:49 57° WNW 14:15:05 10° NNE
NOAA 11 4.5 14:04:57 10° SE 14:10:09 45° ENE 14:15:22 10° N
Starlink E 4.1 14:07:44 10° SSW 14:10:18 27° SSE 14:11:29 20° ESE
Cosmos 1241 Rocket 4.4 14:05:11 10° NW 14:11:26 77° NE 14:17:40 10° SE
H-2A R/B 4.2 14:07:58 10° S 14:11:36 41° W 14:15:18 10° NNW
Starlink J 4.0 14:09:01 10° SSW 14:11:36 28° SSE 14:12:45 21° ESE
Starlink V 4.0 14:10:17 10° SSW 14:12:53 28° SSE 14:13:59 22° ESE
Starlink H 4.0 14:11:35 10° SSW 14:14:12 29° SSE 14:15:16 22° ESE
CZ-4 R/B 4.4 14:10:20 10° SSE 14:14:24 62° ENE 14:18:30 10° N
Cosmos 2154 Rocket 4.0 14:08:48 10° S 14:14:57 61° E 14:21:07 10° NNE
Starlink F 3.9 14:12:54 10° SSW 14:15:32 29° SSE 14:16:33 23° ESE
SKYMED 2 3.9 14:12:12 10° NNE 14:16:24 45° E 14:20:34 10° S
Starlink G 3.9 14:14:12 10° SSW 14:16:50 30° SSE 14:17:49 24° ESE
Starlink L 3.9 14:15:30 10° SSW 14:18:09 30° SSE 14:19:06 25° ESE
CZ-4 R/B 1.4 14:14:32 10° SSE 14:18:32 61° ENE 14:22:37 10° N
Starlink A 3.9 14:16:49 10° SW 14:19:29 31° SSE 14:20:22 25° ESE
Starlink R 3.8 14:18:08 10° SW 14:20:50 32° SSE 14:21:40 26° ESE
Starlink K 3.8 14:19:26 10° SW 14:22:07 32° SSE 14:22:56 27° ESE
Starlink M 3.8 14:20:41 10° SW 14:23:24 33° SSE 14:24:10 28° ESE
Cosmos 1125 Rocket 3.6 14:21:11 10° S 14:26:13 54° ESE 14:30:18 16° NE
Cosmos 1812 Rocket 3.6 14:25:17 10° N 14:29:46 88° WSW 14:34:15 10° S
Cosmos 1610 Rocket 4.4 14:25:26 10° S 14:31:33 82° E 14:37:45 10° NNE
NOSS 2-1 (E) 4.2 14:26:53 10° NW 14:31:47 63° NE 14:37:49 13° ESE
ARGOS 4.3 14:32:40 22° NE 14:32:40 22° NE 14:36:37 10° N
CZ-4C R/B 3.3 14:28:44 10° NW 14:35:44 69° SW 14:43:47 10° SSE
USA 116 4.4 14:36:47 26° SE 14:36:47 26° SE 14:38:43 10° SSE
Cosmos 2074 Rocket 4.5 14:32:03 10° SSW 14:38:18 65° WNW 14:44:35 10° N
Cosmos 1269 Rocket 3.9 14:33:12 10° NNW 14:38:33 84° ENE 14:43:49 10° SSE
Envisat 4.0 14:34:02 10° S 14:38:56 49° W 14:43:53 10° NNW
YAOGAN 1 2.4 14:36:31 10° SSE 14:40:50 81° ENE 14:45:12 10° NNW
Cosmos 1295 Rocket 4.4 14:36:34 10° S 14:42:52 73° E 14:49:12 10° NNE
CSL-04 Debris 4.1 14:39:01 10° SSE 14:44:25 83° ENE 14:49:51 10° NNW
Cosmos 2366 rocket 4.4 14:39:43 10° SSE 14:45:19 37° E 14:51:01 10° NNE
Cosmos 2082 Rocket 4.4 14:44:03 10° NW 14:46:52 14° NNW 14:49:42 10° NNE
Meteor 2-10 Rocket 3.6 14:45:07 10° N 14:50:31 56° ENE 14:55:40 10° SSE
ADEOS Rocket 3.6 14:46:07 15° NNE 14:51:02 37° E 14:57:26 10° SSE
Cosmos-2242 2.9 14:47:04 10° N 14:51:24 65° ENE 14:55:41 10° SSE
Cosmos 2333 Rocket 3.9 14:46:31 10° NW 14:51:40 35° WSW 14:56:46 10° S
Cosmos 962 Rocket 4.3 14:46:45 10° S 14:52:49 73° E 14:59:00 10° NNE
Cosmos 2237 Rocket 2.3 14:48:37 10° NNW 14:54:17 80° WSW 14:59:54 10° SSE
Meteor 1-21 Rocket 4.1 14:52:48 10° S 14:58:18 63° E 15:03:57 10° NNE
Cosmos 1602 Rocket 4.1 14:56:07 10° SSW 15:00:27 59° WNW 15:04:48 10° N
CZ-2D R/B 3.2 14:56:56 10° SSE 15:00:45 85° WSW 15:04:37 10° NNW
COSMO-SKYMED 1 2.9 15:00:16 10° N 15:04:36 66° WNW 15:08:53 10° SSW
Cosmos 1727 Rocket 4.0 14:59:14 10° N 15:05:18 52° ENE 15:11:19 10° SSE
Timation 2 Rocket 4.1 15:00:59 10° SW 15:07:07 76° NW 15:11:40 20° NNE
USA 267 3.4 15:03:58 31° ENE 15:07:09 63° N 15:13:35 10° W
Cosmos 1340 Rocket 4.5 15:05:27 10° NNW 15:09:04 35° W 15:12:41 10° SSW
Starlink AQ 4.1 15:08:21 10° WSW 15:10:13 35° SW 15:10:13 35° SW
Cosmos 1953 Rocket 4.0 15:07:17 10° S 15:10:39 44° SE 15:10:39 44° SE
Starlink BA 4.3 15:10:49 10° WSW 15:12:35 33° SW 15:12:35 33° SW
Starlink AS 4.3 15:10:53 10° WSW 15:12:40 33° SW 15:12:40 33° SW
Starlink AU 4.3 15:11:18 10° WSW 15:13:04 33° SW 15:13:04 33° SW
SL-16 R/B 2.1 15:08:32 10° NNW 15:14:13 66° NE 15:15:57 44° ESE
Starlink BB 4.4 15:11:28 10° WSW 15:13:13 32° SW 15:13:13 32° SW
Starlink AT 4.3 15:11:32 10° WSW 15:13:18 33° SW 15:13:18 33° SW
CSL-04 Rocket 4.2 15:09:06 10° S 15:14:31 62° WSW 15:20:03 10° NNW
Starlink BC 4.4 15:11:42 10° WSW 15:13:26 32° SW 15:13:26 32° SW
Starlink AY 4.4 15:12:08 10° WSW 15:13:52 32° SW 15:13:52 32° SW
Starlink BK 4.4 15:12:11 10° WSW 15:13:56 32° SW 15:13:56 32° SW
Starlink AW 4.4 15:12:21 10° WSW 15:14:04 32° SW 15:14:04 32° SW
Starlink AV 4.4 15:12:44 10° WSW 15:14:26 31° SW 15:14:26 31° SW
Starlink BJ 4.4 15:12:47 10° WSW 15:14:31 32° SW 15:14:31 32° SW
Starlink BD 4.4 15:12:58 10° WSW 15:14:40 31° WSW 15:14:40 31° WSW
Starlink BE 4.4 15:13:25 10° WSW 15:15:11 32° WSW 15:15:11 32° WSW
Starlink AX 4.5 15:13:37 10° WSW 15:15:17 31° WSW 15:15:17 31° WSW
Starlink BM 4.5 15:13:40 10° WSW 15:15:22 31° WSW 15:15:22 31° WSW
Cosmos 2341 Rocket 4.0 15:10:28 10° S 15:16:52 86° W 15:23:17 10° N
Starlink AZ 4.5 15:14:04 10° WSW 15:15:44 30° WSW 15:15:44 30° WSW
Starlink BH 4.5 15:14:07 10° WSW 15:15:48 31° WSW 15:15:48 31° WSW
Cosmos 1758 Rocket 3.4 15:12:46 10° S 15:17:05 85° W 15:18:40 39° N
Starlink BL 4.5 15:14:56 10° WSW 15:16:38 31° WSW 15:16:38 31° WSW
Cosmos 2219 3.0 15:15:47 10° SSW 15:21:22 74° ESE 15:22:56 48° NE
Ariane Rocket 2.8 15:17:29 12° SSE 15:22:07 81° ENE 15:27:13 10° NNW
SL-8 Rocket 3.9 15:16:50 10° S 15:23:09 81° E 15:29:28 10° NNE
H-2A R/B 2.7 15:25:26 37° NNE 15:25:26 37° NNE 15:28:50 10° N
ATLAS 5 CENTAUR R/B 3.0 15:20:27 10° W 15:24:36 34° NNW 15:26:01 29° N
Cosmos 1455 2.8 15:23:28 10° NNW 15:26:29 50° NW 15:26:29 50° NW
Cosmos 1939 Rocket 3.9 15:24:43 10° S 15:28:27 45° W 15:32:16 10° NNW
CZ-2C R/B 4.0 15:36:25 37° NNE 15:36:25 37° NNE 15:40:04 10° N
Cosmos 2251 Rocket 3.3 15:29:55 10° NNW 15:35:14 77° ENE 15:35:20 77° E
Cosmos 1607 4.3 15:30:56 10° WSW 15:36:59 59° NW 15:39:21 37° NNE
Cosmos 2297 Rocket 2.0 15:32:56 10° SSW 15:38:34 72° ESE 15:38:35 72° ESE
ATLAS CENTAUR R/B 4.4 15:34:01 10° W 15:41:03 73° NNW 15:49:50 33° ENE
ATLAS CENTAUR R/B 2.9 15:37:03 10° NW 15:39:21 29° NNW 15:39:21 29° NNW
Cosmos 1825 Rocket 4.2 15:39:13 10° SSW 15:43:30 54° WNW 15:44:17 47° NW
SL-08 R/B 4.4 15:42:46 10° S 15:49:01 73° E 15:55:25 10° NNE
Cosmos 2227 Rocket 2.2 15:44:50 10° SSW 15:49:55 71° S 15:49:55 71° S
Cosmos 2218 Rocket 4.1 15:45:31 10° SSW 15:51:51 79° W 15:58:18 10° N
CZ-4 R/B 4.3 15:51:20 10° SW 15:53:58 17° W 15:56:40 10° NW
Cosmos 1943 4.5 15:59:07 10° NNW 16:02:08 29° N 16:02:08 29° N
ARGOS 4.0 16:14:10 42° NNW 16:14:10 42° NNW 16:17:42 10° NNW
ADEOS Rocket 3.8 16:32:59 24° N 16:36:45 54° WNW 16:43:27 10° SW
USA 267 3.9 16:51:18 50° NW 16:51:18 50° NW 16:56:17 10° WNW
SL-16 R/B 4.0 16:53:16 10° NW 16:57:53 27° WSW 16:57:53 27° WSW
H-2A R/B 4.3 17:06:03 19° NW 17:06:03 19° NW 17:07:58 10° NW
Cosmos 2297 Rocket 4.4 17:18:13 10° WSW 17:20:27 21° W 17:20:27 21° W
CENTAUR R/B 4.4 23:08:41 30° NE 23:08:41 30° NE 23:13:44 10° ENE
